Skip Page Navigation
NASA JPL Caltech
NASA Logo - Jet Propulsion Laboratory + View the NASA Portal
+ Center for Near-Earth Object Studies
JPL Home Earth Solar System Stars & Galaxies Technology
JPL Solar System Dynamics
BODIES ORBITS EPHEMERIDES TOOLS PHYSICAL DATA DISCOVERY FAQ SITE MAP
JPL Small-Body Database Browser
Search: [ help ]  
46032 (2001 DM29)
Classification: Main-belt Asteroid          SPK-ID: 2046032
Ephemeris | Orbit Diagram | Orbital Elements | Mission Design | Physical Parameters | Discovery Circumstances ]

[ show orbit diagram ]
Orbital Elements at Epoch 2459000.5 (2020-May-31.0) TDB
Reference: JPL 19 (heliocentric ecliptic J2000)
 Element Value Uncertainty (1-sigma)   Units 
e .01145931725976897 4.8986e-08  
a 2.279909771300493 1.1249e-08 au
q 2.253783561907513 1.1188e-07 au
i 3.203134817161722 4.2831e-06 deg
node 69.23259510782661 0.00010025 deg
peri 245.3419972100664 0.00025093 deg
M 57.01242346022381 0.00023241 deg
tp 2458801.367604524071
(2019-Nov-13.86760452)
0.0008115 TDB
period 1257.404229121207
3.44
9.3062e-06
2.548e-08
d
yr
n .286304111010985 2.119e-09 deg/d
Q 2.306035980693473 1.1378e-08 au
  Orbit Determination Parameters
   # obs. used (total)      653  
   data-arc span      7256 days (19.87 yr)  
   first obs. used      1998-05-01  
   last obs. used      2018-03-13  
   planetary ephem.      DE431  
   SB-pert. ephem.      SB431-N16  
   condition code      0  
   norm. resid. RMS      .58405  
   source      ORB  
   producer      Otto Matic  
   solution date      2019-Jul-13 02:35:53  

Additional Information
 Earth MOID = 1.24071 au 
 Jupiter MOID = 2.68848 au 
 T_jup = 3.604 
[ show covariance matrix ]

Ephemeris | Orbit Diagram | Orbital Elements | Mission Design | Physical Parameters | Discovery Circumstances ]

Physical Parameter Table
Parameter Symbol Value Units Sigma Reference Notes
absolute magnitude H 16.1   n/a MPO436103  

46032 (2001 DM29)          Discovered 2001-Feb-17 by LINEAR at Socorro
Reference: 20020822/Numbers.arcLast Updated: 2004-04-19
Ephemeris | Orbit Diagram | Orbital Elements | Mission Design | Physical Parameters | Discovery Circumstances ]
ABOUT SSD CREDITS/AWARDS PRIVACY/COPYRIGHT GLOSSARY LINKS
FirstGov 2020-Aug-14 21:12 UT
(server date/time)  
NASA Home Page
Site Manager:   Ryan S. Park
Webmaster  Alan B. Chamberlin